RH
24 32 37 31 26 24 22 23 24 21 16 17 18 19 16 13 14 16 21 28 37 51 56 58 59 59 60 62 65 65 68 66 58 51 46 46 40 36 25 14 10 9 8 7
28 33 25 21 21 19 22 24 25 20 16 17 18 17 16 14 14 13 17 30 35 57 58 59 59 58 58 63 64 63 57 51 51 53 55 47 44 36 22 12 10 8 7 7
29 24 17 17 19 19 20 22 21 21 17 16 17 18 18 14 12 10 10 18 32 54 61 59 58 56 58 61 62 61 60 59 68 69 68 63 54 44 26 22 13 8 7 7
18 13 15 17 19 16 20 15 15 17 23 32 16 29 18 16 15 12 11 12 36 55 60 58 55 56 58 62 65 66 61 71 71 63 59 56 45 32 38 32 16 8 8 8
26 20 19 19 17 16 19 19 18 20 26 28 23 28 19 16 18 15 25 28 43 59 59 58 57 57 60 64 68 70 70 68 63 59 54 43 45 47 44 32 12 10 9 8
23 16 16 15 12 13 16 19 21 23 26 35 24 28 24 22 19 26 31 47 54 61 61 59 60 61 64 68 68 66 67 68 64 55 50 50 50 47 41 17 14 14 12 10
23 20 18 13 16 15 18 24 42 48 46 40 22 24 23 22 27 30 32 52 58 60 60 60 61 64 67 67 68 66 65 64 58 57 58 53 45 40 22 20 20 15 13 13
22 28 18 12 16 18 21 23 40 48 49 37 22 30 31 27 25 25 28 35 54 58 59 59 60 63 66 68 69 68 67 64 55 46 45 39 31 26 26 22 21 17 16 14
20 21 15 16 15 17 23 29 22 30 30 38 35 30 24 25 39 43 31 30 34 50 58 58 60 62 65 66 69 67 69 60 54 41 36 35 30 26 21 24 21 17 16 13
22 36 22 21 19 19 23 20 34 41 43 44 42 39 49 48 52 43 36 42 35 35 49 56 58 61 62 64 67 68 65 62 54 46 45 35 28 25 23 20 17 15 15 14
28 36 35 28 27 30 30 34 40 39 50 58 57 56 53 57 58 57 51 41 42 39 41 48 54 57 57 61 66 68 69 66 55 50 43 34 33 28 26 19 16 20 17 14
36 41 52 40 27 23 25 29 31 72 89 94 98 84 46 47 46 47 41 39 35 43 41 43 47 54 58 61 67 71 72 66 59 52 46 38 33 29 26 21 22 24 20 14
44 59 60 50 42 32 33 28 38 50 68 97 98 86 40 46 49 55 62 47 40 42 34 47 50 53 56 61 68 72 73 70 64 55 51 48 40 34 27 24 28 24 16 12
59 53 60 82 63 50 52 42 37 43 89 83 83 82 65 47 69 60 54 53 39 32 33 46 50 53 57 60 66 71 75 75 70 61 57 51 44 42 37 34 29 19 14 12
57 98 83 72 61 46 45 45 42 45 46 80 81 75 56 39 33 46 44 36 28 20 35 38 53 54 58 61 66 71 74 78 80 72 60 57 52 45 48 48 23 15 12 10
78 91 78 87 67 60 58 53 50 46 43 43 42 47 36 27 27 30 24 21 20 18 33 46 54 58 60 63 67 75 77 82 84 73 63 63 60 48 42 28 15 11 9 8
82 99 96 94 84 69 76 62 54 49 41 38 45 35 28 27 26 38 53 56 42 28 21 33 49 54 61 63 66 74 78 85 88 78 70 72 64 35 35 19 17 13 10 9
79 82 86 92 78 92 59 44 45 51 43 36 34 40 37 44 84 76 64 71 73 68 55 28 23 42 50 69 76 82 84 89 92 92 83 83 58 38 30 29 31 24 16 14
65 81 86 93 78 66 52 37 39 52 67 48 55 46 70 61 55 84 54 51 52 65 76 60 39 34 47 64 82 87 92 95 96 92 90 85 59 55 47 58 57 47 40 53
62 67 86 83 90 77 41 35 28 42 69 41 47 55 72 66 78 86 66 63 59 80 77 76 62 52 51 77 90 93 96 99 97 92 89 82 77 69 68 73 91 76 72 77
67 88 95 93 92 75 60 64 38 72 73 78 58 62 73 86 76 70 70 74 74 64 91 76 77 63 71 85 91 92 96 99 96 90 86 82 86 90 86 95 75 72 75 77
72 81 96 99 97 94 73 69 75 73 72 87 60 43 52 59 60 61 64 66 69 71 75 67 74 79 80 79 82 90 97 97 92 84 82 84 90 97 94 71 67 71 76 76
93 85 92 94 88 70 62 51 38 53 47 58 48 45 43 50 55 49 62 69 72 77 78 71 73 76 80 84 86 91 94 91 86 82 84 93 96 91 72 62 74 82 73 73
67 84 99 80 72 63 58 45 43 42 34 37 39 40 45 47 48 45 54 59 66 67 85 70 71 76 81 84 85 83 87 85 82 83 88 97 91 89 63 74 77 69 71 70
62 84 93 97 80 44 38 33 38 35 36 37 39 46 46 45 49 58 70 69 73 70 91 68 70 72 85 85 86 85 84 84 85 90 95 97 92 81 70 65 68 70 69 66
60 72 99 85 46 46 42 31 34 34 32 33 35 35 42 38 41 62 78 77 74 78 78 83 73 78 73 78 83 86 87 88 89 91 97 91 85 66 63 68 77 78 75 77
Wind_Speed
16 4 8 11 14 12 9 10 6 7 15 7 12 10 11 12 17 18 29 35 36 37 38 34 28 23 24 21 20 20 19 18 18 18 19 18 15 12 11 11 10 9 7 5
4 11 15 14 13 6 7 9 10 7 10 9 9 15 9 8 9 16 25 30 40 34 39 34 31 29 30 28 21 18 17 17 15 12 12 13 12 12 11 10 9 8 7 5
8 10 10 7 6 7 8 8 9 12 8 7 6 16 10 11 17 25 29 34 47 45 46 42 39 37 32 26 20 17 15 19 16 17 18 17 12 11 13 11 9 8 6 5
5 5 6 7 7 5 14 8 13 12 5 7 4 14 16 11 13 19 28 25 36 41 45 46 43 36 30 24 20 18 20 19 18 22 22 18 16 17 14 9 7 6 5 3
6 7 10 12 11 11 17 9 11 5 6 7 1 5 23 5 12 15 5 23 40 48 51 49 44 37 30 25 24 21 23 24 22 25 19 20 17 18 13 8 8 7 6 4
11 16 7 12 17 12 9 5 8 5 2 11 10 7 21 16 12 2 4 18 38 43 41 45 39 34 30 29 28 27 27 26 25 21 20 18 20 20 16 13 10 8 5 3
9 17 15 17 17 16 11 2 6 3 4 12 16 13 15 13 2 10 11 23 33 39 43 42 39 35 33 32 30 29 28 26 24 25 25 24 22 19 15 12 9 8 6 4
10 23 8 5 11 13 8 15 9 5 5 9 10 8 7 8 18 16 12 23 26 31 39 41 38 36 36 34 32 27 26 24 22 24 24 22 20 17 15 13 12 9 6 5
12 21 23 10 12 7 8 6 7 10 12 8 7 8 9 3 13 12 9 26 30 32 35 37 37 37 36 34 32 26 25 24 21 23 23 21 20 20 18 17 14 10 9 8
9 9 11 8 8 16 5 6 9 4 13 20 6 4 6 4 6 6 7 6 20 22 25 33 36 36 32 31 28 21 23 23 22 24 21 21 22 20 18 17 14 12 11 10
15 5 6 5 5 10 10 8 5 5 3 8 13 6 7 9 8 6 3 9 6 16 24 26 35 35 29 31 29 24 25 24 23 23 23 24 23 20 19 18 15 14 13 11
21 7 11 16 14 13 14 15 10 2 6 2 2 6 5 3 1 4 12 22 26 29 29 30 31 34 34 32 30 27 27 27 24 23 24 25 23 22 21 18 17 16 14 12
8 4 7 9 9 6 10 12 2 2 2 4 4 4 5 3 5 10 13 24 15 13 14 24 32 35 35 35 34 31 29 30 26 26 26 26 24 24 23 21 19 16 13 10
14 4 9 10 7 10 13 14 13 6 2 4 8 10 14 2 7 2 13 22 28 25 22 28 32 38 41 39 37 34 32 31 29 28 29 28 27 26 24 21 16 14 13 11
6 6 9 13 16 17 17 18 18 19 13 10 11 15 19 12 7 19 25 27 29 23 28 32 39 42 44 42 40 38 36 35 33 35 34 30 28 27 24 21 17 16 14 13
2 8 10 20 19 16 18 21 16 18 19 17 17 21 19 19 23 23 20 17 20 23 27 32 41 40 44 43 43 42 39 38 36 37 37 32 29 29 25 21 18 17 16 16
3 3 3 8 9 10 12 17 19 20 20 15 16 19 8 10 10 8 13 17 14 9 8 22 33 40 43 44 45 45 42 39 37 34 34 32 29 28 26 23 20 18 17 18
13 9 4 6 2 8 10 8 13 18 20 13 15 5 9 5 19 20 23 21 18 16 13 13 25 32 36 44 43 42 41 38 35 31 30 28 29 26 25 22 19 17 18 19
18 12 6 5 7 10 14 13 12 3 11 14 10 1 5 5 6 6 17 15 15 13 13 7 10 17 27 40 43 41 39 35 34 31 27 26 28 25 24 23 21 19 19 19
15 14 9 5 5 7 1 4 1 4 6 6 6 5 3 6 4 3 12 12 9 5 8 11 11 13 24 37 41 40 36 35 35 30 26 26 28 26 27 27 23 19 18 18
6 4 14 14 8 6 3 7 5 4 4 16 16 12 10 4 4 5 6 10 12 8 10 8 7 16 28 34 36 35 35 36 33 28 28 29 28 25 25 21 22 23 22 24
9 5 4 2 4 7 3 4 5 5 7 8 13 6 12 15 8 1 3 9 12 3 7 3 9 17 22 26 28 33 35 34 31 30 28 29 23 23 25 25 26 26 26 27
5 3 3 3 3 3 16 8 13 15 11 18 7 1 9 10 7 3 5 7 12 11 10 11 15 18 22 25 27 33 34 33 32 32 31 27 23 25 28 29 29 28 28 28
7 11 3 3 7 6 14 11 7 7 4 2 1 8 10 11 10 8 7 6 10 12 17 20 20 21 21 24 26 25 30 32 32 32 28 27 29 28 29 28 29 30 29 27
12 8 5 3 16 10 3 10 7 8 9 10 5 4 9 7 12 12 10 11 12 8 15 23 21 23 25 24 25 26 28 31 29 25 27 30 27 28 29 30 30 28 26 23
5 1 2 4 6 1 4 6 7 6 7 7 10 11 8 10 10 13 13 15 16 16 21 25 22 21 27 26 25 25 25 25 24 28 31 29 30 30 29 30 27 22 19 16
Wind_Direction
270 274 253 231 239 236 282 291 298 301 307 315 288 270 275 273 214 203 187 177 172 175 172 168 168 176 179 186 190 195 198 192 188 181 177 182 185 181 172 168 166 164 161 163
270 242 247 254 262 283 305 302 285 271 261 283 295 289 266 271 257 227 211 187 178 163 166 164 169 176 182 180 189 201 196 184 169 168 169 186 183 175 173 172 166 162 164 168
230 250 274 261 251 273 277 275 288 275 287 281 292 287 286 276 263 261 258 212 186 165 159 162 170 174 176 182 191 201 191 162 164 191 180 185 188 181 184 173 171 165 162 163
262 300 345 327 306 306 282 268 283 293 318 279 52 297 275 277 283 282 247 232 178 159 157 162 170 172 181 186 192 192 178 179 194 198 199 209 205 187 190 170 167 162 162 165
254 310 326 307 275 263 270 297 300 285 307 313 183 276 282 298 273 271 210 156 157 158 161 169 173 180 182 183 181 180 181 188 193 201 209 189 185 190 192 198 183 172 168 164
279 286 275 259 278 269 279 315 305 292 250 274 286 223 280 277 254 21 100 125 148 152 157 170 175 178 176 180 184 185 192 200 202 191 192 197 199 196 204 198 189 177 164 168
279 267 265 270 266 263 239 209 279 283 205 252 277 261 249 305 301 142 144 134 145 154 160 171 173 176 180 187 192 196 205 209 200 195 201 202 202 209 202 192 192 196 188 191
292 300 211 303 306 306 260 220 216 228 244 262 271 269 275 131 142 141 127 133 147 156 167 173 176 180 183 190 192 199 208 207 204 195 198 198 199 192 190 194 200 208 200 206
278 269 293 265 290 293 305 240 225 262 268 277 252 290 293 44 69 30 149 152 151 166 169 174 178 186 185 193 196 201 207 206 200 192 193 192 193 194 193 198 207 209 209 208
272 276 285 311 314 294 251 286 298 295 265 260 239 255 251 106 98 71 68 100 156 157 163 176 180 187 190 200 200 205 203 203 199 195 193 190 193 194 201 206 206 208 206 195
313 248 281 324 267 280 306 312 333 316 289 276 265 260 222 169 171 209 54 353 1 166 174 182 189 193 198 202 202 200 199 207 201 198 194 195 199 197 202 202 203 205 202 195
299 265 275 265 278 291 287 282 287 212 278 270 280 259 326 59 259 18 182 205 213 194 187 186 195 196 194 197 199 197 200 206 210 204 198 199 202 201 200 202 203 198 197 195
336 289 298 284 303 264 253 269 101 157 249 225 263 246 36 111 11 76 2 337 311 326 282 193 190 195 196 200 198 199 203 205 210 207 201 201 201 202 202 203 200 198 200 200
305 251 240 248 261 300 291 281 277 259 219 272 250 285 294 231 217 310 226 229 243 231 251 220 194 200 198 201 200 202 204 208 209 210 208 206 204 205 205 202 196 196 193 192
247 242 240 261 264 271 269 276 277 274 263 224 275 273 280 268 258 196 224 230 238 260 213 211 197 198 197 200 202 204 210 208 210 214 211 209 207 206 204 203 196 194 194 191
78 269 256 256 253 260 272 266 270 268 263 258 251 247 258 282 274 280 280 270 251 256 212 208 199 199 198 200 204 204 207 207 208 210 208 208 207 205 204 203 196 192 188 185
235 218 236 261 226 249 256 257 246 256 257 249 253 261 268 272 269 329 2 30 15 337 197 202 206 209 206 206 210 207 209 205 205 209 208 208 207 203 202 198 192 187 185 183
249 234 255 274 230 254 231 203 222 233 249 254 253 281 294 5 89 61 37 16 11 17 356 250 225 214 212 207 205 208 208 204 205 211 209 207 204 196 193 190 187 181 182 180
222 226 243 243 243 294 290 283 275 243 260 266 254 168 49 10 146 71 21 8 345 329 344 301 193 214 211 207 203 204 202 199 206 205 211 202 200 193 188 184 186 184 179 176
220 221 219 230 251 249 352 8 325 107 301 243 161 123 137 43 54 289 5 2 358 36 9 304 273 213 195 198 197 195 197 198 203 202 203 198 198 196 188 186 192 184 178 171
295 215 229 228 227 272 46 355 33 135 262 339 84 112 127 100 143 22 346 306 315 330 300 303 196 194 191 186 191 194 197 197 199 195 193 194 200 203 201 183 179 180 180 182
284 260 233 201 232 240 183 47 142 186 275 357 280 108 120 130 136 84 14 350 324 272 225 250 174 176 176 186 191 192 193 195 194 196 201 198 205 202 175 180 181 186 187 193
285 327 239 190 247 224 184 187 212 188 212 215 211 219 182 174 181 230 267 314 332 276 231 186 189 174 183 187 190 187 191 194 193 195 194 196 191 181 173 185 185 190 197 201
281 351 289 346 343 223 200 233 245 238 262 313 31 303 220 199 216 244 269 298 318 311 221 197 188 181 180 188 194 203 194 196 196 195 197 188 179 179 181 193 195 197 201 207
275 292 263 298 256 300 25 331 338 323 336 328 328 329 308 274 263 258 256 264 274 330 202 198 199 193 185 188 196 197 196 197 197 196 186 184 186 179 185 194 202 206 215 223
243 255 259 251 307 309 260 301 307 264 300 310 286 292 254 278 287 261 241 259 275 254 217 198 196 198 190 188 190 192 197 199 193 183 180 183 179 186 192 194 197 211 224 225